Tracking 19562 objects as of 24-Mar-2019
HD Live streaming from Space Station
objects crossing your sky now

BS-3B (YURI 3B)

Track BS-3B (YURI 3B) now!
BS-3B (YURI 3B) is classified as:


NORAD ID: 21668
Int'l Code: 1991-060A
Perigee: 36,195.3 km
Apogee: 36,234.2 km
Inclination: 13.3 °
Period: 1,457.7 minutes
Semi major axis: 42585 km
RCS: 1.6 m2 (large)
Launch date: August 25, 1991
Source: Japan (JPN)
Launch site: TANEGASHIMA SPACE CENTER (TNSTA)
aabbcc
Your satellite tracking list
Your tracking list is empty




NASA's NSSDC Master Catalog

Two Line Element Set (TLE):
1 21668U 91060A   19080.81718826 -.00000075  00000-0  00000+0 0  9990
2 21668  13.2817  14.9438 0004569  13.1340 181.4142  0.98788601103240
Source of the keplerian elements: AFSPC